User: anonymous   Login
Location: Unspecified
(51.0459°N, 0.0000°E)
Time: 11:08:32
(UTC+00:00)
Language:

Hubble Space Telescope - Orbit

View from above orbital plane
View from above orbital plane
View from above satellite
View from above satellite

Ground track
Ground track

The orbit data is extracted from the following two-line orbital elements,

1 20580U 90037B   19169.86239583 +.00000307 +00000-0 +77101-5 0  9995
2 20580 028.4682 210.8099 0002910 123.1888 211.9881 15.09236601400826
Epoch (UTC): 18 June 2019 20:41:51
Eccentricity: 0.0002910
inclination: 28.4682°
perigee height: 536 km
apogee height: 540 km
right ascension of ascending node: 210.8099°
argument of perigee: 123.1888°
revolutions per day: 15.09236601
mean anomaly at epoch: 211.9881°
orbit number at epoch: 40082

The dashed part of the orbit path shows where the satellite is in the earth's shadow,  

DLR